This is the latest recevied weather packets stored in our database for station/object KD2RHT-13. If no packets are shown the sender has not sent any weather packets the latest 10 day(s).
| Time | Temp. | Humidity | Pressure | Rain* | Wind** | Luminosity | Snow |
|---|---|---|---|---|---|---|---|
| 1777150198 | 8.89° C | 95% | 1016.2 hPa | 0 mm | - | 55 W/m² | - |
| 1777149897 | 8.89° C | 95% | 1015.9 hPa | 0 mm | - | 62 W/m² | - |
| 1777149592 | 8.89° C | 95% | 1016.2 hPa | 0 mm | - | 59 W/m² | - |
| 1777149290 | 8.89° C | 95% | 1015.9 hPa | 0 mm | - | 62 W/m² | - |
| 1777148984 | 8.89° C | 96% | 1015.9 hPa | 1.78 mm | - | 58 W/m² | - |
| 1777148679 | 8.89° C | 96% | 1015.9 hPa | 1.78 mm | - | 71 W/m² | - |
| 1777148375 | 8.89° C | 96% | 1015.9 hPa | 0 mm | - | 78 W/m² | - |
| 1777148072 | 8.89° C | 96% | 1015.9 hPa | 0 mm | - | 69 W/m² | - |
| 1777147768 | 8.89° C | 96% | 1015.9 hPa | 0 mm | - | 49 W/m² | - |
| 1777147464 | 9.44° C | 96% | 1015.9 hPa | 0 mm | - | 55 W/m² | - |
| 1777147160 | 9.44° C | 96% | 1015.9 hPa | 0 mm | - | 78 W/m² | - |
| 1777146855 | 9.44° C | 96% | 1015.9 hPa | 0 mm | - | 95 W/m² | - |
| 1777146552 | 9.44° C | 96% | 1015.9 hPa | 0 mm | - | 111 W/m² | - |
| 1777146248 | 10° C | 97% | 1015.9 hPa | 0 mm | - | 133 W/m² | - |
| 1777145943 | 9.44° C | 97% | 1015.6 hPa | 0 mm | - | 128 W/m² | - |
| 1777145641 | 9.44° C | 97% | 1015.6 hPa | 0 mm | - | 112 W/m² | - |
| 1777145335 | 9.44° C | 98% | 1015.6 hPa | 0 mm | - | 99 W/m² | - |
| 1777145030 | 10° C | 98% | 1015.6 hPa | 0 mm | - | 119 W/m² | - |
| 1777144725 | 10° C | 98% | 1015.6 hPa | 0 mm | - | 131 W/m² | - |
| 1777144419 | 10° C | 98% | 1015.2 hPa | 0 mm | - | 170 W/m² | - |
| 1777144117 | 10° C | 98% | 1015.6 hPa | 0 mm | - | 203 W/m² | - |
| 1777143812 | 10° C | 98% | 1015.6 hPa | 0 mm | - | 225 W/m² | - |
| 1777143509 | 10° C | 98% | 1015.6 hPa | 0 mm | - | 175 W/m² | - |
| 1777143204 | 10° C | 98% | 1015.9 hPa | 1.27 mm | - | 179 W/m² | - |
| 1777142901 | 10° C | 97% | 1015.6 hPa | 1.27 mm | - | 180 W/m² | - |
* Rain latest hour (hover to see other rain measurements)
** Current wind speed in m/s (hover to see current wind gust speed)